Los Alamos, NM

7:23 AM MDT on March 23, 2017 (GMT -0600)
Los Alamos

Weather History for KLAM - April, 2013

Change the Weather History Date:

Sunday, April 28, 2013

  Actual Average Record
Temperature  
Mean Temperature 60 °F -  
Max Temperature 74 °F 63 °F 77 °F (1992)
Min Temperature 47 °F 37 °F 22 °F (1991)
Degree Days  
Heating Degree Days 4    
Growing Degree Days 10 (Base 50)    
Moisture  
Dew Point 11 °F    
Average Humidity 15    
Maximum Humidity 24    
Minimum Humidity 9    
Precipitation  
Precipitation 0.00 in - - ()
Sea Level Pressure  
Sea Level Pressure 30.14 in    
Wind  
Wind Speed 4 mph (North)    
Max Wind Speed 16 mph    
Max Gust Speed 25 mph    
Visibility 10 miles    
Events      
Averages and records for this station are not official NWS values.
T = Trace of Precipitation, MM = Missing Value Source: NWS Daily Summary

Daily Weather History Graph

Daily Weather History Graph

Search for Another Location

Airport or City:

Trip Planner

Search our weather history database for the weather conditions in past years. The results will help you decide how hot, cold, wet, or windy it might be!

Date:

Astronomy

Apr. 28, 2013 Rise Set
Actual Time 6:15 AM MDT 7:49 PM MDT
Civil Twilight 5:48 AM MDT 8:17 PM MDT
Nautical Twilight 5:15 AM MDT 8:49 PM MDT
Astronomical Twilight 4:41 AM MDT 9:24 PM MDT
Moon 11:19 PM MDT (4/28) 8:38 AM MDT (4/28)
Length of Visible Light 14h 28m
Length of Day
13h 34m
Waning Gibbous, 88% of the Moon is Illuminated
Apr 28
Waning Gibbous
May 2
Last Quarter
May 9
New
May 17
First Quarter
May 24
Full

Hourly Weather History & Observations

Time (MDT) Temp. Dew Point Humidity Pressure Visibility Wind Dir Wind Speed Gust Speed Precip Events Conditions
12:15 AM 57.7 °F 7.9 °F 14% 30.22 in 10.0 mi Calm Calm - N/A   Clear
12:35 AM 57.7 °F 7.7 °F 14% 30.22 in 10.0 mi ENE 3.5 mph - N/A   Clear
12:55 AM 55.0 °F 7.2 °F 15% 30.21 in 10.0 mi Calm Calm - N/A   Clear
1:15 AM 54.5 °F 7.3 °F 15% 30.21 in 10.0 mi Calm Calm - N/A   Clear
1:35 AM 54.0 °F 10.2 °F 17% 30.21 in 10.0 mi North 4.6 mph - N/A   Clear
1:55 AM 53.2 °F 11.1 °F 19% 30.20 in 10.0 mi NNE 4.6 mph - N/A   Clear
2:15 AM 52.9 °F 11.5 °F 19% 30.20 in 10.0 mi Calm Calm - N/A   Clear
2:35 AM 52.0 °F 12.2 °F 20% 30.19 in 10.0 mi NNE 3.5 mph - N/A   Clear
2:55 AM 52.0 °F 12.4 °F 21% 30.19 in 10.0 mi North 4.6 mph - N/A   Clear
3:15 AM 51.4 °F 12.2 °F 21% 30.19 in 10.0 mi Calm Calm - N/A   Clear
3:35 AM 50.0 °F 12.6 °F 22% 30.19 in 10.0 mi NE 4.6 mph - N/A   Clear
3:55 AM 49.1 °F 12.2 °F 23% 30.19 in 10.0 mi ENE 3.5 mph - N/A   Clear
4:15 AM 48.4 °F 12.0 °F 23% 30.19 in 10.0 mi NE 4.6 mph - N/A   Clear
4:35 AM 48.0 °F 12.0 °F 24% 30.19 in 10.0 mi Calm Calm - N/A   Clear
4:55 AM 47.1 °F 12.0 °F 24% 30.18 in 10.0 mi WNW 4.6 mph - N/A   Clear
5:15 AM 49.3 °F 11.7 °F 22% 30.19 in 10.0 mi WNW 3.5 mph - N/A   Clear
5:35 AM 50.9 °F 11.3 °F 20% 30.18 in 10.0 mi WNW 5.8 mph - N/A   Clear
5:55 AM 50.9 °F 10.8 °F 20% 30.18 in 10.0 mi WNW 4.6 mph - N/A   Clear
6:15 AM 51.8 °F 10.4 °F 19% 30.19 in 10.0 mi NW 8.1 mph - N/A   Clear
6:35 AM 50.0 °F 10.4 °F 20% 30.19 in 10.0 mi NNW 4.6 mph - N/A   Clear
7:15 AM 47.7 °F 12.0 °F 24% 30.20 in 10.0 mi Calm Calm - N/A   Clear
7:35 AM 49.3 °F 13.8 °F 24% 30.21 in 10.0 mi Calm Calm - N/A   Clear
7:55 AM 52.0 °F 11.3 °F 20% 30.21 in 10.0 mi Calm Calm - N/A   Clear
8:15 AM 52.3 °F 13.6 °F 21% 30.22 in 10.0 mi Calm Calm - N/A   Clear
8:35 AM 53.2 °F 14.5 °F 22% 30.21 in 10.0 mi North 3.5 mph - N/A   Clear
8:55 AM 55.0 °F 14.7 °F 20% 30.21 in 10.0 mi Calm Calm - N/A   Clear
9:15 AM 56.5 °F 15.4 °F 20% 30.21 in 10.0 mi NE 4.6 mph - N/A   Clear
9:35 AM 59.0 °F 15.1 °F 18% 30.21 in 10.0 mi ENE 4.6 mph - N/A   Clear
9:55 AM 59.9 °F 14.5 °F 17% 30.21 in 10.0 mi NE 5.8 mph - N/A   Clear
10:15 AM 60.3 °F 13.6 °F 16% 30.21 in 10.0 mi NNE 5.8 mph - N/A   Clear
10:35 AM 61.5 °F 12.6 °F 15% 30.21 in 10.0 mi Calm Calm - N/A   Clear
10:55 AM 64.0 °F 12.7 °F 14% 30.19 in 10.0 mi NE 6.9 mph - N/A   Clear
11:15 AM 63.9 °F 11.1 °F 13% 30.19 in 10.0 mi ENE 6.9 mph - N/A   Clear
11:35 AM 64.4 °F 11.1 °F 12% 30.19 in 10.0 mi SE 5.8 mph - N/A   Clear
11:55 AM 65.3 °F 11.5 °F 12% 30.19 in 10.0 mi Calm Calm - N/A   Clear
12:15 PM 65.3 °F 11.1 °F 12% 30.18 in 10.0 mi East 10.4 mph - N/A   Clear
12:35 PM 66.9 °F 11.1 °F 11% 30.17 in 10.0 mi SE 4.6 mph - N/A   Clear
12:55 PM 67.5 °F 11.5 °F 11% 30.16 in 10.0 mi ENE 4.6 mph - N/A   Clear
1:15 PM 68.2 °F 11.3 °F 11% 30.15 in 10.0 mi NE 3.5 mph 18.4 mph N/A   Clear
1:35 PM 70.2 °F 11.8 °F 11% 30.14 in 10.0 mi ESE 6.9 mph - N/A   Clear
1:55 PM 70.7 °F 12.6 °F 11% 30.12 in 10.0 mi South 16.1 mph 21.9 mph N/A   Clear
2:15 PM 70.0 °F 13.1 °F 11% 30.12 in 10.0 mi SE 8.1 mph - N/A   Clear
2:35 PM 71.2 °F 13.6 °F 11% 30.11 in 10.0 mi East 10.4 mph - N/A   Clear
2:55 PM 70.2 °F 13.3 °F 11% 30.10 in 10.0 mi WSW 9.2 mph - N/A   Clear
3:15 PM 70.2 °F 12.6 °F 11% 30.09 in 10.0 mi South 10.4 mph - N/A   Clear
3:35 PM 70.2 °F 12.4 °F 11% 30.08 in 10.0 mi South 6.9 mph - N/A   Clear
3:55 PM 70.3 °F 12.2 °F 11% 30.07 in 10.0 mi Calm Calm - N/A   Clear
4:15 PM 71.2 °F 12.0 °F 10% 30.06 in 10.0 mi SSW 4.6 mph - N/A   Clear
4:35 PM 72.5 °F 12.2 °F 10% 30.05 in 10.0 mi East 9.2 mph - N/A   Clear
4:55 PM 74.1 °F 12.6 °F 10% 30.05 in 10.0 mi ENE 5.8 mph - N/A   Clear
5:15 PM 72.0 °F 10.9 °F 10% 30.05 in 10.0 mi NNE 3.5 mph - N/A   Clear
5:35 PM 72.1 °F 11.3 °F 10% 30.04 in 10.0 mi NE 8.1 mph - N/A   Clear
5:55 PM 72.3 °F 12.0 °F 10% 30.04 in 10.0 mi NW 3.5 mph - N/A   Clear
6:15 PM 71.8 °F 10.0 °F 9% 30.03 in 10.0 mi West 10.4 mph - N/A   Clear
6:35 PM 71.4 °F 10.6 °F 10% 30.03 in 10.0 mi NNE 9.2 mph 18.4 mph N/A   Clear
6:55 PM 70.2 °F 10.4 °F 10% 30.03 in 10.0 mi West 11.5 mph 17.3 mph N/A   Clear
7:15 PM 68.9 °F 9.1 °F 10% 30.03 in 10.0 mi West 12.7 mph 25.3 mph N/A   Clear
7:35 PM 67.5 °F 9.3 °F 10% 30.04 in 10.0 mi West 11.5 mph 20.7 mph N/A   Clear
7:55 PM 66.9 °F 9.5 °F 11% 30.05 in 10.0 mi West 9.2 mph 17.3 mph N/A   Clear
8:15 PM 66.2 °F 9.9 °F 11% 30.05 in 10.0 mi West 11.5 mph 21.9 mph N/A   Clear
8:35 PM 65.1 °F 10.2 °F 12% 30.06 in 10.0 mi West 15.0 mph 19.6 mph N/A   Clear
8:55 PM 64.4 °F 10.4 °F 12% 30.06 in 10.0 mi West 11.5 mph 19.6 mph N/A   Clear
9:15 PM 64.2 °F 10.2 °F 12% 30.07 in 10.0 mi West 15.0 mph 19.6 mph N/A   Clear
9:35 PM 63.7 °F 9.7 °F 12% 30.07 in 10.0 mi WNW 9.2 mph 18.4 mph N/A   Clear
9:55 PM 62.8 °F 9.5 °F 12% 30.07 in 10.0 mi West 11.5 mph - N/A   Clear
10:15 PM 63.0 °F 8.4 °F 12% 30.07 in 10.0 mi West 10.4 mph - N/A   Clear
10:35 PM 62.1 °F 8.4 °F 12% 30.07 in 10.0 mi West 8.1 mph - N/A   Clear
10:55 PM 62.1 °F 9.0 °F 12% 30.06 in 10.0 mi WNW 6.9 mph - N/A   Clear
11:15 PM 62.6 °F 9.0 °F 12% 30.06 in 10.0 mi WNW 9.2 mph - N/A   Clear
11:35 PM 62.6 °F 9.3 °F 12% 30.06 in 10.0 mi WNW 6.9 mph - N/A   Clear
11:55 PM 59.5 °F 8.6 °F 13% 30.06 in 10.0 mi ENE 4.6 mph - N/A   Clear